This is the latest recevied weather packets stored in our database for station/object OM7FX-15. If no packets are shown the sender has not sent any weather packets the latest 10 day(s).
| Time | Temp. | Humidity | Pressure | Rain* | Wind** | Luminosity | Snow |
|---|---|---|---|---|---|---|---|
| 1777645076 | 28.33° C | 33% | 977.2 hPa | - | - | - | - |
| 1777644175 | 28.89° C | 30% | 977.2 hPa | - | - | - | - |
| 1777643275 | 26.67° C | 34% | 977.3 hPa | - | - | - | - |
| 1777642375 | 28.89° C | 30% | 977.3 hPa | - | - | - | - |
| 1777641475 | 26.67° C | 34% | 977.4 hPa | - | - | - | - |
| 1777640575 | 28.89° C | 30% | 977.5 hPa | - | - | - | - |
| 1777639675 | 27.22° C | 33% | 977.6 hPa | - | - | - | - |
| 1777638775 | 28.89° C | 29% | 977.7 hPa | - | - | - | - |
| 1777637875 | 26.67° C | 32% | 978 hPa | - | - | - | - |
| 1777636975 | 28.33° C | 30% | 978.1 hPa | - | - | - | - |
| 1777636075 | 28.33° C | 29% | 978.3 hPa | - | - | - | - |
| 1777635175 | 26.11° C | 34% | 978.4 hPa | - | - | - | - |
| 1777634275 | 28.33° C | 30% | 978.6 hPa | - | - | - | - |
| 1777633375 | 25.56° C | 34% | 978.8 hPa | - | - | - | - |
| 1777632474 | 28.89° C | 29% | 978.9 hPa | - | - | - | - |
| 1777631575 | 26.11° C | 33% | 979.1 hPa | - | - | - | - |
| 1777630674 | 24.44° C | 36% | 979.1 hPa | - | - | - | - |
| 1777629774 | 23.89° C | 35% | 979.2 hPa | - | - | - | - |
| 1777628874 | 23.33° C | 35% | 979.3 hPa | - | - | - | - |
| 1777627973 | 22.78° C | 33% | 979.4 hPa | - | - | - | - |
| 1777626980 | 22.78° C | 33% | 979.5 hPa | - | - | - | - |
| 1777626080 | 22.78° C | 44% | 979.6 hPa | - | - | - | - |
| 1777625180 | 22.78° C | 42% | 979.7 hPa | - | - | - | - |
| 1777624280 | 22.78° C | 42% | 979.7 hPa | - | - | - | - |
| 1777623380 | 22.78° C | 42% | 979.6 hPa | - | - | - | - |
* Rain since midnight (hover to see other rain measurements)
** Current wind speed in m/s (hover to see current wind gust speed)